When you browse on this site, cookies collect data to enhance your experience and personalize the content and advertising you see.
Visit our Privacy Policy to learn more. By continuing to use the site, you agree to this use of cookies and data.
  • In Latvia
  • List of Countries
  • For 7 days
  • Water Temperature
  • Satellite Maps
  • Weather Map
  • Weather Widgets
  • user-avatar
    Login

    Hourly Weather Iraklion

    Today, 19 December, Wednesday

    Time Temperature Precipitation Wind Pressure Humidity
    00:00 +12°C° 0.3 mm 7 mps 753 mmHg 75%
    01:00 +12°C° 0.3 mm 7 mps 754 mmHg 76%
    02:00 +12°C° 0 mm 7 mps 753 mmHg 76%
    03:00 +12°C° 0.3 mm 7 mps 754 mmHg 76%
    04:00 +12°C° 0.3 mm 8 mps 754 mmHg 76%
    05:00 +12°C° 0.3 mm 8 mps 754 mmHg 76%
    06:00 +11°C° 0.2 mm 8 mps 755 mmHg 76%
    07:00 +11°C° 0.2 mm 8 mps 755 mmHg 76%
    08:00 +11°C° 0.2 mm 8 mps 756 mmHg 76%
    09:00 +11°C° 0.2 mm 9 mps 756 mmHg 74%
    10:00 +11°C° 0.2 mm 9 mps 756 mmHg 72%
    11:00 +11°C° 0.2 mm 9 mps 756 mmHg 69%
    12:00 +12°C° 0.3 mm 10 mps 757 mmHg 68%
    13:00 +12°C° 0.3 mm 10 mps 757 mmHg 66%
    14:00 +12°C° 0.3 mm 11 mps 757 mmHg 65%
    15:00 +11°C° 0.2 mm 10 mps 757 mmHg 66%
    16:00 +11°C° 0.2 mm 10 mps 758 mmHg 68%
    17:00 +11°C° 0.2 mm 10 mps 758 mmHg 69%
    18:00 +11°C° 0.1 mm 10 mps 758 mmHg 70%
    19:00 +9°C° 0.1 mm 10 mps 759 mmHg 71%
    20:00 +9°C° 0.1 mm 10 mps 759 mmHg 71%
    21:00 +9°C° 0 mm 10 mps 759 mmHg 71%
    22:00 +9°C° 0 mm 10 mps 760 mmHg 70%
    23:00 +10°C° 0 mm 9 mps 760 mmHg 70%

    Tomorrow, 20 December, Thursday

    Time Temperature Precipitation Wind Pressure Humidity
    00:00 +10°C° 0 mm 9 mps 760 mmHg 71%
    01:00 +10°C° 0 mm 9 mps 760 mmHg 72%
    02:00 +10°C° 0 mm 8 mps 761 mmHg 73%
    03:00 +10°C° 0 mm 8 mps 761 mmHg 73%
    04:00 +10°C° 0 mm 8 mps 761 mmHg 73%
    05:00 +10°C° 0 mm 8 mps 761 mmHg 73%
    06:00 +10°C° 0 mm 8 mps 761 mmHg 73%
    07:00 +10°C° 0 mm 7 mps 761 mmHg 74%
    08:00 +9°C° 0 mm 7 mps 762 mmHg 74%
    09:00 +11°C° 0 mm 7 mps 762 mmHg 70%
    10:00 +12°C° 0 mm 7 mps 762 mmHg 65%
    11:00 +14°C° 0 mm 6 mps 763 mmHg 61%
    12:00 +14°C° 0 mm 6 mps 762 mmHg 60%
    13:00 +14°C° 0 mm 6 mps 762 mmHg 59%
    14:00 +15°C° 0 mm 6 mps 762 mmHg 57%
    15:00 +14°C° 0 mm 5 mps 762 mmHg 60%
    16:00 +13°C° 0 mm 5 mps 762 mmHg 63%
    17:00 +13°C° 0 mm 5 mps 762 mmHg 66%
    18:00 +12°C° 0 mm 5 mps 762 mmHg 69%
    19:00 +11°C° 0 mm 4 mps 762 mmHg 72%
    20:00 +11°C° 0 mm 4 mps 763 mmHg 74%
    21:00 +11°C° 0 mm 4 mps 763 mmHg 75%
    22:00 +11°C° 0 mm 4 mps 763 mmHg 76%
    23:00 +11°C° 0 mm 4 mps 763 mmHg 76%

    Day after tomorrow, 21 December, Friday

    Time Temperature Precipitation Wind Pressure Humidity
    00:00 +11°C° 0 mm 4 mps 763 mmHg 76%
    01:00 +10°C° 0 mm 3 mps 763 mmHg 77%
    02:00 +10°C° 0 mm 3 mps 763 mmHg 77%
    03:00 +10°C° 0 mm 3 mps 763 mmHg 77%
    04:00 +10°C° 0 mm 3 mps 763 mmHg 77%
    05:00 +10°C° 0 mm 3 mps 763 mmHg 77%
    06:00 +10°C° 0 mm 3 mps 763 mmHg 77%
    07:00 +10°C° 0 mm 3 mps 763 mmHg 78%
    08:00 +10°C° 0 mm 3 mps 764 mmHg 78%
    09:00 +13°C° 0 mm 2 mps 764 mmHg 70%
    10:00 +14°C° 0 mm 2 mps 764 mmHg 63%
    11:00 +16°C° 0 mm 2 mps 764 mmHg 55%
    12:00 +16°C° 0 mm 2 mps 764 mmHg 53%
    13:00 +17°C° 0 mm 2 mps 764 mmHg 51%
    14:00 +17°C° 0 mm 2 mps 763 mmHg 48%
    15:00 +16°C° 0 mm 2 mps 763 mmHg 53%
    16:00 +16°C° 0 mm 2 mps 763 mmHg 58%
    17:00 +15°C° 0 mm 2 mps 763 mmHg 62%
    18:00 +13°C° 0 mm 3 mps 763 mmHg 66%
    19:00 +13°C° 0 mm 3 mps 764 mmHg 69%
    20:00 +13°C° 0 mm 3 mps 764 mmHg 73%
    21:00 +12°C° 0 mm 3 mps 764 mmHg 75%
    22:00 +12°C° 0 mm 3 mps 763 mmHg 77%
    23:00 +12°C° 0 mm 3 mps 763 mmHg 79%

    22 December, Saturday

    Time Temperature Precipitation Wind Pressure Humidity
    00:00 +12°C° 0 mm 3 mps 763 mmHg 80%
    01:00 +12°C° 0 mm 3 mps 763 mmHg 82%
    02:00 +11°C° 0 mm 3 mps 763 mmHg 83%
    03:00 +11°C° 0 mm 3 mps 762 mmHg 83%
    04:00 +11°C° 0 mm 3 mps 762 mmHg 83%
    05:00 +11°C° 0 mm 3 mps 762 mmHg 83%
    06:00 +11°C° 0 mm 3 mps 762 mmHg 83%
    07:00 +13°C° 0 mm 2 mps 762 mmHg 83%
    08:00 +13°C° 0 mm 2 mps 762 mmHg 83%
    09:00 +14°C° 0 mm 2 mps 762 mmHg 75%
    10:00 +16°C° 0 mm 2 mps 762 mmHg 67%
    11:00 +18°C° 0 mm 1 mps 762 mmHg 58%
    12:00 +18°C° 0 mm 2 mps 762 mmHg 59%
    13:00 +18°C° 0 mm 2 mps 761 mmHg 59%
    14:00 +19°C° 0 mm 2 mps 761 mmHg 59%
    15:00 +18°C° 0 mm 3 mps 761 mmHg 64%
    16:00 +17°C° 0 mm 3 mps 761 mmHg 69%
    17:00 +17°C° 0 mm 3 mps 761 mmHg 74%
    18:00 +16°C° 0 mm 3 mps 761 mmHg 76%
    19:00 +16°C° 0 mm 3 mps 761 mmHg 79%
    20:00 +14°C° 0 mm 3 mps 761 mmHg 81%
    21:00 +14°C° 0 mm 3 mps 761 mmHg 82%
    22:00 +14°C° 0 mm 3 mps 761 mmHg 83%
    23:00 +13°C° 0 mm 3 mps 761 mmHg 84%

    23 December, Sunday

    Time Temperature Precipitation Wind Pressure Humidity
    00:00 +13°C° 0 mm 3 mps 761 mmHg 84%
    01:00 +13°C° 0 mm 4 mps 760 mmHg 84%
    02:00 +13°C° 0 mm 4 mps 760 mmHg 84%
    03:00 +13°C° 0 mm 4 mps 760 mmHg 84%
    04:00 +13°C° 0 mm 4 mps 760 mmHg 84%
    05:00 +13°C° 0 mm 4 mps 760 mmHg 84%
    06:00 +13°C° 0 mm 4 mps 760 mmHg 83%
    07:00 +13°C° 0 mm 4 mps 760 mmHg 83%
    08:00 +13°C° 0 mm 4 mps 760 mmHg 82%
    09:00 +14°C° 0 mm 4 mps 760 mmHg 78%
    10:00 +15°C° 0 mm 4 mps 761 mmHg 73%
    11:00 +17°C° 0 mm 4 mps 761 mmHg 68%
    12:00 +17°C° 0 mm 4 mps 761 mmHg 68%
    13:00 +17°C° 0 mm 4 mps 760 mmHg 68%
    14:00 +17°C° 0 mm 4 mps 760 mmHg 68%
    15:00 +17°C° 0 mm 3 mps 760 mmHg 70%
    16:00 +17°C° 0 mm 3 mps 760 mmHg 71%
    17:00 +17°C° 0 mm 3 mps 759 mmHg 73%
    18:00 +16°C° 0 mm 3 mps 760 mmHg 76%
    19:00 +16°C° 0 mm 3 mps 760 mmHg 79%
    20:00 +15°C° 0 mm 2 mps 760 mmHg 82%
    21:00 +15°C° 0 mm 2 mps 760 mmHg 83%
    22:00 +14°C° 0 mm 2 mps 760 mmHg 84%
    23:00 +14°C° 0 mm 2 mps 760 mmHg 85%

    24 December, Monday

    Time Temperature Precipitation Wind Pressure Humidity
    00:00 +14°C° 0 mm 2 mps 760 mmHg 86%
    01:00 +14°C° 0 mm 2 mps 759 mmHg 86%
    02:00 +14°C° 0 mm 2 mps 759 mmHg 86%
    03:00 +14°C° 0 mm 2 mps 759 mmHg 86%
    04:00 +14°C° 0 mm 2 mps 759 mmHg 87%
    05:00 +14°C° 0 mm 2 mps 758 mmHg 87%
    06:00 +14°C° 0 mm 2 mps 758 mmHg 86%
    07:00 +14°C° 0 mm 2 mps 759 mmHg 86%
    08:00 +15°C° 0 mm 2 mps 759 mmHg 86%
    09:00 +15°C° 0 mm 2 mps 759 mmHg 81%
    10:00 +16°C° 0 mm 2 mps 759 mmHg 75%
    11:00 +17°C° 0 mm 2 mps 759 mmHg 70%
    12:00 +18°C° 0 mm 3 mps 758 mmHg 71%
    13:00 +18°C° 0 mm 3 mps 758 mmHg 71%
    14:00 +18°C° 0 mm 3 mps 757 mmHg 71%
    15:00 +17°C° 0 mm 3 mps 757 mmHg 73%
    16:00 +17°C° 0 mm 3 mps 757 mmHg 75%
    17:00 +17°C° 0 mm 3 mps 756 mmHg 77%
    18:00 +16°C° 0 mm 3 mps 756 mmHg 78%
    19:00 +16°C° 0 mm 3 mps 756 mmHg 79%
    20:00 +16°C° 0 mm 3 mps 756 mmHg 80%
    21:00 +15°C° 0 mm 4 mps 756 mmHg 81%
    22:00 +15°C° 0 mm 4 mps 756 mmHg 83%
    23:00 +15°C° 0 mm 4 mps 756 mmHg 84%
    Show more